Year,Month,Day,Hour,Minute,Value (Times are PST for temperature in C)
2012,07,27,00,00,17.40
2012,07,27,00,01,17.40
2012,07,27,00,02,17.40
2012,07,27,00,03,17.40
2012,07,27,00,04,17.40
2012,07,27,00,05,17.30
2012,07,27,00,06,17.30
2012,07,27,00,07,17.30
2012,07,27,00,08,17.30
2012,07,27,00,09,17.30
2012,07,27,00,10,17.30
2012,07,27,00,11,17.30
2012,07,27,00,12,17.30
2012,07,27,00,13,17.30
2012,07,27,00,14,17.30
2012,07,27,00,15,17.30
2012,07,27,00,16,17.30
2012,07,27,00,17,17.30
2012,07,27,00,18,17.30
2012,07,27,00,19,17.20
2012,07,27,00,20,17.20
2012,07,27,00,21,17.20
2012,07,27,00,22,17.20
2012,07,27,00,23,17.20
2012,07,27,00,24,17.20
2012,07,27,00,25,17.20
2012,07,27,00,26,17.10
2012,07,27,00,27,17.10
2012,07,27,00,28,17.10
2012,07,27,00,29,17.10
2012,07,27,00,30,17.10
2012,07,27,00,31,17.10
2012,07,27,00,32,17.10
2012,07,27,00,33,17.10
2012,07,27,00,34,17.10
2012,07,27,00,35,17.00
2012,07,27,00,36,17.00
2012,07,27,00,37,17.00
2012,07,27,00,38,17.00
2012,07,27,00,39,17.00
2012,07,27,00,40,16.90
2012,07,27,00,41,16.90
2012,07,27,00,42,16.90
2012,07,27,00,43,16.90
2012,07,27,00,44,16.90
2012,07,27,00,45,16.90
2012,07,27,00,46,16.80
2012,07,27,00,47,16.80
2012,07,27,00,48,16.80
2012,07,27,00,49,16.80
2012,07,27,00,50,16.80
2012,07,27,00,51,16.80
2012,07,27,00,52,16.80
2012,07,27,00,53,16.80
2012,07,27,00,54,16.70
2012,07,27,00,55,16.70
2012,07,27,00,56,16.70
2012,07,27,00,57,16.70
2012,07,27,00,58,16.70
2012,07,27,00,59,16.70
2012,07,27,01,00,16.70
2012,07,27,01,01,16.70
2012,07,27,01,02,16.70
2012,07,27,01,03,16.70
2012,07,27,01,04,16.70
2012,07,27,01,05,16.60
2012,07,27,01,06,16.60
2012,07,27,01,07,16.60
2012,07,27,01,08,16.60
2012,07,27,01,09,16.60
2012,07,27,01,10,16.60
2012,07,27,01,11,16.60
2012,07,27,01,12,16.60
2012,07,27,01,13,16.60
2012,07,27,01,14,16.60
2012,07,27,01,15,16.60
2012,07,27,01,16,16.60
2012,07,27,01,17,16.60
2012,07,27,01,18,16.60
2012,07,27,01,19,16.60
2012,07,27,01,20,16.60
2012,07,27,01,21,16.60
2012,07,27,01,22,16.60
2012,07,27,01,23,16.60
2012,07,27,01,24,16.60
2012,07,27,01,25,16.60
2012,07,27,01,26,16.60
2012,07,27,01,27,16.60
2012,07,27,01,28,16.60
2012,07,27,01,29,16.60
2012,07,27,01,30,16.60
2012,07,27,01,31,16.60
2012,07,27,01,32,16.60
2012,07,27,01,33,16.60
2012,07,27,01,34,16.60
2012,07,27,01,35,16.70
2012,07,27,01,36,16.70
2012,07,27,01,37,16.70
2012,07,27,01,38,16.70
2012,07,27,01,39,16.70
2012,07,27,01,40,16.70
2012,07,27,01,41,16.70
2012,07,27,01,42,16.70
2012,07,27,01,43,16.70
2012,07,27,01,44,16.70
2012,07,27,01,45,16.70
2012,07,27,01,46,16.70
2012,07,27,01,47,16.70
2012,07,27,01,48,16.70
2012,07,27,01,49,16.70
2012,07,27,01,50,16.70
2012,07,27,01,51,16.70
2012,07,27,01,52,16.70
2012,07,27,01,53,16.70
2012,07,27,01,54,16.70
2012,07,27,01,55,16.70
2012,07,27,01,56,16.70
2012,07,27,01,57,16.70
2012,07,27,01,58,16.70
2012,07,27,01,59,16.70
2012,07,27,02,00,16.60
2012,07,27,02,01,16.60
2012,07,27,02,02,16.60
2012,07,27,02,03,16.60
2012,07,27,02,04,16.60
2012,07,27,02,05,16.60
2012,07,27,02,06,16.60
2012,07,27,02,07,16.60
2012,07,27,02,08,16.60
2012,07,27,02,09,16.60
2012,07,27,02,10,16.60
2012,07,27,02,11,16.50
2012,07,27,02,12,16.50
2012,07,27,02,13,16.50
2012,07,27,02,14,16.50
2012,07,27,02,15,16.50
2012,07,27,02,16,16.50
2012,07,27,02,17,16.50
2012,07,27,02,18,16.50
2012,07,27,02,19,16.50
2012,07,27,02,20,16.50
2012,07,27,02,21,16.50
2012,07,27,02,22,16.40
2012,07,27,02,23,16.50
2012,07,27,02,24,16.40
2012,07,27,02,25,16.50
2012,07,27,02,26,16.50
2012,07,27,02,27,16.50
2012,07,27,02,28,16.50
2012,07,27,02,29,16.50
2012,07,27,02,30,16.40
2012,07,27,02,31,16.50
2012,07,27,02,32,16.40
2012,07,27,02,33,16.40
2012,07,27,02,34,16.40
2012,07,27,02,35,16.40
2012,07,27,02,36,16.40
2012,07,27,02,37,16.40
2012,07,27,02,38,16.40
2012,07,27,02,39,16.40
2012,07,27,02,40,16.30
2012,07,27,02,41,16.30
2012,07,27,02,42,16.30
2012,07,27,02,43,16.30
2012,07,27,02,44,16.30
2012,07,27,02,45,16.30
2012,07,27,02,46,16.30
2012,07,27,02,47,16.30
2012,07,27,02,48,16.30
2012,07,27,02,49,16.30
2012,07,27,02,50,16.30
2012,07,27,02,51,16.30
2012,07,27,02,52,16.30
2012,07,27,02,53,16.30
2012,07,27,02,54,16.20
2012,07,27,02,55,16.20
2012,07,27,02,56,16.20
2012,07,27,02,57,16.20
2012,07,27,02,58,16.20
2012,07,27,02,59,16.10
2012,07,27,03,00,16.10
2012,07,27,03,01,16.10
2012,07,27,03,02,16.10
2012,07,27,03,03,16.10
2012,07,27,03,04,16.10
2012,07,27,03,05,16.10
2012,07,27,03,06,16.00
2012,07,27,03,07,16.00
2012,07,27,03,08,16.00
2012,07,27,03,09,16.00
2012,07,27,03,10,15.90
2012,07,27,03,11,15.90
2012,07,27,03,12,15.90
2012,07,27,03,13,15.90
2012,07,27,03,14,15.90
2012,07,27,03,15,15.90
2012,07,27,03,16,15.90
2012,07,27,03,17,15.90
2012,07,27,03,18,15.90
2012,07,27,03,19,15.90
2012,07,27,03,20,15.90
2012,07,27,03,21,15.90
2012,07,27,03,22,15.90
2012,07,27,03,23,15.90
2012,07,27,03,24,15.90
2012,07,27,03,25,15.90
2012,07,27,03,26,15.90
2012,07,27,03,27,15.90
2012,07,27,03,28,15.90
2012,07,27,03,29,15.90
2012,07,27,03,30,15.90
2012,07,27,03,31,15.90
2012,07,27,03,32,15.90
2012,07,27,03,33,15.80
2012,07,27,03,34,15.80
2012,07,27,03,35,15.80
2012,07,27,03,36,15.80
2012,07,27,03,37,15.80
2012,07,27,03,38,15.80
2012,07,27,03,39,15.80
2012,07,27,03,40,15.80
2012,07,27,03,41,15.80
2012,07,27,03,42,15.80
2012,07,27,03,43,15.80
2012,07,27,03,44,15.80
2012,07,27,03,45,15.80
2012,07,27,03,46,15.80
2012,07,27,03,47,15.80
2012,07,27,03,48,15.80
2012,07,27,03,49,15.80
2012,07,27,03,50,15.70
2012,07,27,03,51,15.70
2012,07,27,03,52,15.70
2012,07,27,03,53,15.70
2012,07,27,03,54,15.70
2012,07,27,03,55,15.70
2012,07,27,03,56,15.70
2012,07,27,03,57,15.70
2012,07,27,03,58,15.70
2012,07,27,03,59,15.70
2012,07,27,04,00,15.60
2012,07,27,04,01,15.60
2012,07,27,04,02,15.60
2012,07,27,04,03,15.60
2012,07,27,04,04,15.60
2012,07,27,04,05,15.60
2012,07,27,04,06,15.60
2012,07,27,04,07,15.60
2012,07,27,04,08,15.60
2012,07,27,04,09,15.50
2012,07,27,04,10,15.50
2012,07,27,04,11,15.50
2012,07,27,04,12,15.40
2012,07,27,04,13,15.40
2012,07,27,04,14,15.40
2012,07,27,04,15,15.40
2012,07,27,04,16,15.40
2012,07,27,04,17,15.40
2012,07,27,04,18,15.30
2012,07,27,04,19,15.30
2012,07,27,04,20,15.30
2012,07,27,04,21,15.30
2012,07,27,04,22,15.30
2012,07,27,04,23,15.30
2012,07,27,04,24,15.30
2012,07,27,04,25,15.30
2012,07,27,04,26,15.30
2012,07,27,04,27,15.20
2012,07,27,04,28,15.20
2012,07,27,04,29,15.20
2012,07,27,04,30,15.20
2012,07,27,04,31,15.20
2012,07,27,04,32,15.10
2012,07,27,04,33,15.10
2012,07,27,04,34,15.10
2012,07,27,04,35,15.10
2012,07,27,04,36,15.10
2012,07,27,04,37,15.10
2012,07,27,04,38,15.10
2012,07,27,04,39,15.00
2012,07,27,04,40,15.00
2012,07,27,04,41,15.00
2012,07,27,04,42,15.00
2012,07,27,04,43,15.00
2012,07,27,04,44,15.00
2012,07,27,04,45,15.00
2012,07,27,04,46,15.00
2012,07,27,04,47,15.00
2012,07,27,04,48,15.00
2012,07,27,04,49,15.00
2012,07,27,04,50,15.00
2012,07,27,04,51,15.00
2012,07,27,04,52,15.00
2012,07,27,04,53,15.00
2012,07,27,04,54,15.00
2012,07,27,04,55,15.00
2012,07,27,04,56,15.00
2012,07,27,04,57,15.00
2012,07,27,04,58,15.00
2012,07,27,04,59,15.00
2012,07,27,05,00,15.00
2012,07,27,05,01,15.00
2012,07,27,05,02,14.90
2012,07,27,05,03,14.90
2012,07,27,05,04,14.90
2012,07,27,05,05,14.90
2012,07,27,05,06,14.90
2012,07,27,05,07,15.00
2012,07,27,05,08,15.00
2012,07,27,05,09,15.00
2012,07,27,05,10,15.00
2012,07,27,05,11,15.00
2012,07,27,05,12,15.00
2012,07,27,05,13,15.00
2012,07,27,05,14,15.00
2012,07,27,05,15,15.00
2012,07,27,05,16,15.00
2012,07,27,05,17,15.00
2012,07,27,05,18,15.00
2012,07,27,05,19,15.00
2012,07,27,05,20,15.00
2012,07,27,05,21,15.00
2012,07,27,05,22,15.00
2012,07,27,05,23,15.00
2012,07,27,05,24,15.00
2012,07,27,05,25,15.00
2012,07,27,05,26,15.00
2012,07,27,05,27,15.00
2012,07,27,05,28,15.00
2012,07,27,05,29,15.00
2012,07,27,05,30,15.00
2012,07,27,05,31,15.00
2012,07,27,05,32,15.00
2012,07,27,05,33,15.00
2012,07,27,05,34,15.00
2012,07,27,05,35,15.00
2012,07,27,05,36,15.00
2012,07,27,05,37,15.00
2012,07,27,05,38,15.00
2012,07,27,05,39,15.00
2012,07,27,05,40,15.00
2012,07,27,05,41,14.90
2012,07,27,05,42,14.90
2012,07,27,05,43,14.90
2012,07,27,05,44,14.90
2012,07,27,05,45,14.80
2012,07,27,05,46,14.80
2012,07,27,05,47,14.80
2012,07,27,05,48,14.80
2012,07,27,05,49,14.80
2012,07,27,05,50,14.80
2012,07,27,05,51,14.80
2012,07,27,05,52,14.80
2012,07,27,05,53,14.80
2012,07,27,05,54,14.80
2012,07,27,05,55,14.80
2012,07,27,05,56,14.80
2012,07,27,05,57,14.80
2012,07,27,05,58,14.80
2012,07,27,05,59,14.80
2012,07,27,06,00,14.70
2012,07,27,06,01,14.70
2012,07,27,06,02,14.70
2012,07,27,06,03,14.70
2012,07,27,06,04,14.70
2012,07,27,06,05,14.60
2012,07,27,06,06,14.60
2012,07,27,06,07,14.60
2012,07,27,06,08,14.60
2012,07,27,06,09,14.70
2012,07,27,06,10,14.70
2012,07,27,06,11,14.70
2012,07,27,06,12,14.70
2012,07,27,06,13,14.70
2012,07,27,06,14,14.70
2012,07,27,06,15,14.80
2012,07,27,06,16,14.80
2012,07,27,06,17,14.80
2012,07,27,06,18,14.80
2012,07,27,06,19,14.80
2012,07,27,06,20,14.80
2012,07,27,06,21,14.80
2012,07,27,06,22,14.80
2012,07,27,06,23,14.80
2012,07,27,06,24,14.80
2012,07,27,06,25,14.70
2012,07,27,06,26,14.70
2012,07,27,06,27,14.70
2012,07,27,06,28,14.70
2012,07,27,06,29,14.70
2012,07,27,06,30,14.70
2012,07,27,06,31,14.70
2012,07,27,06,32,14.80
2012,07,27,06,33,14.80
2012,07,27,06,34,14.80
2012,07,27,06,35,14.80
2012,07,27,06,36,14.80
2012,07,27,06,37,14.80
2012,07,27,06,38,14.80
2012,07,27,06,39,14.90
2012,07,27,06,40,14.90
2012,07,27,06,41,15.00
2012,07,27,06,42,15.00
2012,07,27,06,43,15.00
2012,07,27,06,44,15.00
2012,07,27,06,45,15.00
2012,07,27,06,46,15.00
2012,07,27,06,47,15.00
2012,07,27,06,48,15.00
2012,07,27,06,49,15.10
2012,07,27,06,50,15.10
2012,07,27,06,51,15.20
2012,07,27,06,52,15.20
2012,07,27,06,53,15.30
2012,07,27,06,54,15.30
2012,07,27,06,55,15.30
2012,07,27,06,56,15.40
2012,07,27,06,57,15.40
2012,07,27,06,58,15.50
2012,07,27,06,59,15.50
2012,07,27,07,00,15.60
2012,07,27,07,01,15.60
2012,07,27,07,02,15.60
2012,07,27,07,03,15.60
2012,07,27,07,04,15.70
2012,07,27,07,05,15.70
2012,07,27,07,06,15.70
2012,07,27,07,07,15.70
2012,07,27,07,08,15.80
2012,07,27,07,09,15.80
2012,07,27,07,10,15.80
2012,07,27,07,11,15.80
2012,07,27,07,12,15.80
2012,07,27,07,13,15.90
2012,07,27,07,14,15.90
2012,07,27,07,15,16.00
2012,07,27,07,16,16.00
2012,07,27,07,17,16.00
2012,07,27,07,18,16.10
2012,07,27,07,19,16.10
2012,07,27,07,20,16.10
2012,07,27,07,21,16.20
2012,07,27,07,22,16.20
2012,07,27,07,23,16.20
2012,07,27,07,24,16.20
2012,07,27,07,25,16.30
2012,07,27,07,26,16.30
2012,07,27,07,27,16.30
2012,07,27,07,28,16.30
2012,07,27,07,29,16.30
2012,07,27,07,30,16.40
2012,07,27,07,31,16.40
2012,07,27,07,32,16.40
2012,07,27,07,33,16.40
2012,07,27,07,34,16.50
2012,07,27,07,35,16.50
2012,07,27,07,36,16.50
2012,07,27,07,37,16.50
2012,07,27,07,38,16.60
2012,07,27,07,39,16.60
2012,07,27,07,40,16.60
2012,07,27,07,41,16.60
2012,07,27,07,42,16.60
2012,07,27,07,43,16.60
2012,07,27,07,44,16.60
2012,07,27,07,45,16.70
2012,07,27,07,46,16.70
2012,07,27,07,47,16.70
2012,07,27,07,48,16.70
2012,07,27,07,49,16.70
2012,07,27,07,50,16.70
2012,07,27,07,51,16.70
2012,07,27,07,52,16.70
2012,07,27,07,53,16.70
2012,07,27,07,54,16.70
2012,07,27,07,55,16.80
2012,07,27,07,56,16.80
2012,07,27,07,57,16.80
2012,07,27,07,58,16.90
2012,07,27,07,59,16.90
2012,07,27,08,00,16.90
2012,07,27,08,01,16.90
2012,07,27,08,02,16.90
2012,07,27,08,03,17.00
2012,07,27,08,04,17.00
2012,07,27,08,05,17.00
2012,07,27,08,06,17.00
2012,07,27,08,07,17.10
2012,07,27,08,08,17.10
2012,07,27,08,09,17.10
2012,07,27,08,10,17.10
2012,07,27,08,11,17.10
2012,07,27,08,12,17.00
2012,07,27,08,13,17.00
2012,07,27,08,14,17.00
2012,07,27,08,15,17.00
2012,07,27,08,16,17.00
2012,07,27,08,17,16.90
2012,07,27,08,18,16.90
2012,07,27,08,19,16.90
2012,07,27,08,20,16.90
2012,07,27,08,21,16.90
2012,07,27,08,22,16.80
2012,07,27,08,23,16.80
2012,07,27,08,24,16.80
2012,07,27,08,25,16.80
2012,07,27,08,26,16.80
2012,07,27,08,27,16.80
2012,07,27,08,28,16.80
2012,07,27,08,29,16.80
2012,07,27,08,30,16.80
2012,07,27,08,31,16.80
2012,07,27,08,32,16.80
2012,07,27,08,33,16.80
2012,07,27,08,34,16.80
2012,07,27,08,35,16.80
2012,07,27,08,36,16.80
2012,07,27,08,37,16.80
2012,07,27,08,38,16.80
2012,07,27,08,39,16.80
2012,07,27,08,40,16.90
2012,07,27,08,41,16.90
2012,07,27,08,42,16.90
2012,07,27,08,43,16.90
2012,07,27,08,44,16.90
2012,07,27,08,45,16.90
2012,07,27,08,46,16.90
2012,07,27,08,47,16.90
2012,07,27,08,48,16.90
2012,07,27,08,49,16.90
2012,07,27,08,50,16.90
2012,07,27,08,51,16.90
2012,07,27,08,52,16.90
2012,07,27,08,53,16.90
2012,07,27,08,54,16.90
2012,07,27,08,55,16.90
2012,07,27,08,56,16.90
2012,07,27,08,57,16.90
2012,07,27,08,58,16.90
2012,07,27,08,59,16.90
2012,07,27,09,00,16.90
2012,07,27,09,01,16.90
2012,07,27,09,02,16.90
2012,07,27,09,03,17.00
2012,07,27,09,04,17.00
2012,07,27,09,05,17.00
2012,07,27,09,06,17.00
2012,07,27,09,07,17.00
2012,07,27,09,08,17.00
2012,07,27,09,09,17.00
2012,07,27,09,10,17.00
2012,07,27,09,11,17.00
2012,07,27,09,12,17.10
2012,07,27,09,13,17.10
2012,07,27,09,14,17.10
2012,07,27,09,15,17.10
2012,07,27,09,16,17.10
2012,07,27,09,17,17.20
2012,07,27,09,18,17.20
2012,07,27,09,19,17.20
2012,07,27,09,20,17.20
2012,07,27,09,21,17.20
2012,07,27,09,22,17.20
2012,07,27,09,23,17.10
2012,07,27,09,24,17.10
2012,07,27,09,25,17.10
2012,07,27,09,26,17.10
2012,07,27,09,27,17.10
2012,07,27,09,28,17.10
2012,07,27,09,29,17.10
2012,07,27,09,30,17.10
2012,07,27,09,31,17.10
2012,07,27,09,32,17.20
2012,07,27,09,33,17.20
2012,07,27,09,34,17.20
2012,07,27,09,35,17.20
2012,07,27,09,36,17.20
2012,07,27,09,37,17.20
2012,07,27,09,38,17.20
2012,07,27,09,39,17.20
2012,07,27,09,40,17.20
2012,07,27,09,41,17.20
2012,07,27,09,42,17.20
2012,07,27,09,43,17.20
2012,07,27,09,44,17.20
2012,07,27,09,45,17.20
2012,07,27,09,46,17.20
2012,07,27,09,47,17.30
2012,07,27,09,48,17.30
2012,07,27,09,49,17.30
2012,07,27,09,50,17.30
2012,07,27,09,51,17.30
2012,07,27,09,52,17.30
2012,07,27,09,53,17.30
2012,07,27,09,54,17.30
2012,07,27,09,55,17.30
2012,07,27,09,56,17.30
2012,07,27,09,57,17.30
2012,07,27,09,58,17.30
2012,07,27,09,59,17.30
2012,07,27,10,00,17.30
2012,07,27,10,01,17.30
2012,07,27,10,02,17.30
2012,07,27,10,03,17.30
2012,07,27,10,04,17.30
2012,07,27,10,05,17.30
2012,07,27,10,06,17.30
2012,07,27,10,07,17.30
2012,07,27,10,08,17.20
2012,07,27,10,09,17.20
2012,07,27,10,10,17.20
2012,07,27,10,11,17.20
2012,07,27,10,12,17.20
2012,07,27,10,13,17.20
2012,07,27,10,14,17.20
2012,07,27,10,15,17.20
2012,07,27,10,16,17.20
2012,07,27,10,17,17.10
2012,07,27,10,18,17.10
2012,07,27,10,19,17.10
2012,07,27,10,20,17.10
2012,07,27,10,21,17.10
2012,07,27,10,22,17.10
2012,07,27,10,23,17.10
2012,07,27,10,24,17.10
2012,07,27,10,25,17.20
2012,07,27,10,26,17.20
2012,07,27,10,27,17.20
2012,07,27,10,28,17.20
2012,07,27,10,29,17.20
2012,07,27,10,30,17.30
2012,07,27,10,31,17.30
2012,07,27,10,32,17.30
2012,07,27,10,33,17.30
2012,07,27,10,34,17.30
2012,07,27,10,35,17.30
2012,07,27,10,36,17.30
2012,07,27,10,37,17.40
2012,07,27,10,38,17.40
2012,07,27,10,39,17.40
2012,07,27,10,40,17.40
2012,07,27,10,41,17.40
2012,07,27,10,42,17.40
2012,07,27,10,43,17.30
2012,07,27,10,44,17.30
2012,07,27,10,45,17.30
2012,07,27,10,46,17.30
2012,07,27,10,47,17.30
2012,07,27,10,48,17.30
2012,07,27,10,49,17.30
2012,07,27,10,50,17.30
2012,07,27,10,51,17.30
2012,07,27,10,52,17.30
2012,07,27,10,53,17.40
2012,07,27,10,54,17.40
2012,07,27,10,55,17.40
2012,07,27,10,56,17.40
2012,07,27,10,57,17.40
2012,07,27,10,58,17.50
2012,07,27,10,59,17.50
2012,07,27,11,00,17.50
2012,07,27,11,01,17.50
2012,07,27,11,02,17.60
2012,07,27,11,03,17.60
2012,07,27,11,04,17.60
2012,07,27,11,05,17.70
2012,07,27,11,06,17.70
2012,07,27,11,07,17.70
2012,07,27,11,08,17.70
2012,07,27,11,09,17.70
2012,07,27,11,10,17.70
2012,07,27,11,11,17.80
2012,07,27,11,12,17.80
2012,07,27,11,13,17.80
2012,07,27,11,14,17.80
2012,07,27,11,15,17.80
2012,07,27,11,16,17.80
2012,07,27,11,17,17.90
2012,07,27,11,18,17.90
2012,07,27,11,19,17.90
2012,07,27,11,20,17.90
2012,07,27,11,21,17.90
2012,07,27,11,22,17.80
2012,07,27,11,23,17.80
2012,07,27,11,24,17.90
2012,07,27,11,25,17.80
2012,07,27,11,26,17.80
2012,07,27,11,27,17.70
2012,07,27,11,28,17.70
2012,07,27,11,29,17.70
2012,07,27,11,30,17.70
2012,07,27,11,31,17.60
2012,07,27,11,32,17.70
2012,07,27,11,33,17.70
2012,07,27,11,34,17.70
2012,07,27,11,35,17.70
2012,07,27,11,36,17.70
2012,07,27,11,37,17.70
2012,07,27,11,38,17.70
2012,07,27,11,39,17.70
2012,07,27,11,40,17.70
2012,07,27,11,41,17.70
2012,07,27,11,42,17.70
2012,07,27,11,43,17.70
2012,07,27,11,44,17.70
2012,07,27,11,45,17.70
2012,07,27,11,46,17.70
2012,07,27,11,47,17.70
2012,07,27,11,48,17.80
2012,07,27,11,49,17.80
2012,07,27,11,50,17.90
2012,07,27,11,51,17.90
2012,07,27,11,52,18.00
2012,07,27,11,53,18.10
2012,07,27,11,54,18.10
2012,07,27,11,55,18.20
2012,07,27,11,56,18.20
2012,07,27,11,57,18.30
2012,07,27,11,58,18.30
2012,07,27,11,59,18.30
2012,07,27,12,00,18.30
2012,07,27,12,01,18.20
2012,07,27,12,02,18.20
2012,07,27,12,03,18.20
2012,07,27,12,04,18.30
2012,07,27,12,05,18.20
2012,07,27,12,06,18.20
2012,07,27,12,07,18.20
2012,07,27,12,08,18.20
2012,07,27,12,09,18.20
2012,07,27,12,10,18.20
2012,07,27,12,11,18.10
2012,07,27,12,12,18.10
2012,07,27,12,13,18.10
2012,07,27,12,14,18.10
2012,07,27,12,15,18.10
2012,07,27,12,16,18.10
2012,07,27,12,17,18.10
2012,07,27,12,18,18.10
2012,07,27,12,19,18.10
2012,07,27,12,20,18.10
2012,07,27,12,21,18.10
2012,07,27,12,22,18.10
2012,07,27,12,23,18.10
2012,07,27,12,24,18.20
2012,07,27,12,25,18.20
2012,07,27,12,26,18.20
2012,07,27,12,27,18.20
2012,07,27,12,28,18.30
2012,07,27,12,29,18.40
2012,07,27,12,30,18.50
2012,07,27,12,31,18.50
2012,07,27,12,32,18.60
2012,07,27,12,33,18.60
2012,07,27,12,34,18.70
2012,07,27,12,35,18.70
2012,07,27,12,36,18.70
2012,07,27,12,37,18.70
2012,07,27,12,38,18.70
2012,07,27,12,39,18.70
2012,07,27,12,40,18.70
2012,07,27,12,41,18.70
2012,07,27,12,42,18.70
2012,07,27,12,43,18.70
2012,07,27,12,44,18.70
2012,07,27,12,45,18.70
2012,07,27,12,46,18.60
2012,07,27,12,47,18.60
2012,07,27,12,48,18.60
2012,07,27,12,49,18.70
2012,07,27,12,50,18.80
2012,07,27,12,51,18.80
2012,07,27,12,52,18.90
2012,07,27,12,53,19.00
2012,07,27,12,54,19.00
2012,07,27,12,55,19.10
2012,07,27,12,56,19.20
2012,07,27,12,57,19.30
2012,07,27,12,58,19.30
2012,07,27,12,59,19.40
2012,07,27,13,00,19.40
2012,07,27,13,01,19.40
2012,07,27,13,02,19.50
2012,07,27,13,03,19.50
2012,07,27,13,04,19.60
2012,07,27,13,05,19.60
2012,07,27,13,06,19.60
2012,07,27,13,07,19.50
2012,07,27,13,08,19.50
2012,07,27,13,09,19.40
2012,07,27,13,10,19.40
2012,07,27,13,11,19.40
2012,07,27,13,12,19.40
2012,07,27,13,13,19.40
2012,07,27,13,14,19.40
2012,07,27,13,15,19.40
2012,07,27,13,16,19.50
2012,07,27,13,17,19.60
2012,07,27,13,18,19.70
2012,07,27,13,19,19.80
2012,07,27,13,20,19.80
2012,07,27,13,21,19.80
2012,07,27,13,22,19.80
2012,07,27,13,23,19.80
2012,07,27,13,24,19.80
2012,07,27,13,25,19.90
2012,07,27,13,26,19.90
2012,07,27,13,27,19.90
2012,07,27,13,28,19.90
2012,07,27,13,29,19.90
2012,07,27,13,30,19.80
2012,07,27,13,31,19.90
2012,07,27,13,32,19.90
2012,07,27,13,33,19.90
2012,07,27,13,34,19.80
2012,07,27,13,35,19.80
2012,07,27,13,36,19.70
2012,07,27,13,37,19.60
2012,07,27,13,38,19.60
2012,07,27,13,39,19.60
2012,07,27,13,40,19.60
2012,07,27,13,41,19.60
2012,07,27,13,42,19.60
2012,07,27,13,43,19.60
2012,07,27,13,44,19.70
2012,07,27,13,45,19.70
2012,07,27,13,46,19.70
2012,07,27,13,47,19.70
2012,07,27,13,48,19.70
2012,07,27,13,49,19.70
2012,07,27,13,50,19.70
2012,07,27,13,51,19.70
2012,07,27,13,52,19.70
2012,07,27,13,53,19.70
2012,07,27,13,54,19.80
2012,07,27,13,55,19.80
2012,07,27,13,56,19.80
2012,07,27,13,57,19.80
2012,07,27,13,58,19.80
2012,07,27,13,59,19.80
2012,07,27,14,00,19.70
2012,07,27,14,01,19.70
2012,07,27,14,02,19.70
2012,07,27,14,03,19.70
2012,07,27,14,04,19.70
2012,07,27,14,05,19.60
2012,07,27,14,06,19.70
2012,07,27,14,07,19.70
2012,07,27,14,08,19.70
2012,07,27,14,09,19.80
2012,07,27,14,10,19.80
2012,07,27,14,11,19.90
2012,07,27,14,12,20.00
2012,07,27,14,13,20.00
2012,07,27,14,14,20.10
2012,07,27,14,15,20.00
2012,07,27,14,16,20.00
2012,07,27,14,17,19.90
2012,07,27,14,18,19.90
2012,07,27,14,19,19.80
2012,07,27,14,20,19.80
2012,07,27,14,21,19.90
2012,07,27,14,22,19.90
2012,07,27,14,23,19.90
2012,07,27,14,24,19.90
2012,07,27,14,25,19.90
2012,07,27,14,26,19.90
2012,07,27,14,27,19.90
2012,07,27,14,28,20.00
2012,07,27,14,29,20.00
2012,07,27,14,30,19.90
2012,07,27,14,31,19.90
2012,07,27,14,32,19.80
2012,07,27,14,33,19.80
2012,07,27,14,34,19.80
2012,07,27,14,35,19.80
2012,07,27,14,36,19.80
2012,07,27,14,37,19.80
2012,07,27,14,38,19.80
2012,07,27,14,39,19.80
2012,07,27,14,40,19.80
2012,07,27,14,41,19.80
2012,07,27,14,42,19.70
2012,07,27,14,43,19.60
2012,07,27,14,44,19.50
2012,07,27,14,45,19.40
2012,07,27,14,46,19.40
2012,07,27,14,47,19.30
2012,07,27,14,48,19.30
2012,07,27,14,49,19.20
2012,07,27,14,50,19.20
2012,07,27,14,51,19.20
2012,07,27,14,52,19.10
2012,07,27,14,53,19.10
2012,07,27,14,54,19.10
2012,07,27,14,55,19.00
2012,07,27,14,56,18.90
2012,07,27,14,57,18.90
2012,07,27,14,58,18.80
2012,07,27,14,59,18.90
2012,07,27,15,00,18.90
2012,07,27,15,01,19.00
2012,07,27,15,02,19.10
2012,07,27,15,03,19.10
2012,07,27,15,04,19.10
2012,07,27,15,05,19.20
2012,07,27,15,06,19.30
2012,07,27,15,07,19.40
2012,07,27,15,08,19.50
2012,07,27,15,09,19.60
2012,07,27,15,10,19.60
2012,07,27,15,11,19.60
2012,07,27,15,12,19.60
2012,07,27,15,13,19.60
2012,07,27,15,14,19.60
2012,07,27,15,15,19.60
2012,07,27,15,16,19.60
2012,07,27,15,17,19.60
2012,07,27,15,18,19.50
2012,07,27,15,19,19.50
2012,07,27,15,20,19.40
2012,07,27,15,21,19.40
2012,07,27,15,22,19.30
2012,07,27,15,23,19.20
2012,07,27,15,24,19.10
2012,07,27,15,25,19.00
2012,07,27,15,26,18.90
2012,07,27,15,27,18.90
2012,07,27,15,28,18.90
2012,07,27,15,29,18.90
2012,07,27,15,30,18.80
2012,07,27,15,31,18.90
2012,07,27,15,32,18.90
2012,07,27,15,33,18.90
2012,07,27,15,34,18.90
2012,07,27,15,35,18.90
2012,07,27,15,36,18.90
2012,07,27,15,37,18.90
2012,07,27,15,38,18.90
2012,07,27,15,39,19.00
2012,07,27,15,40,19.10
2012,07,27,15,41,19.20
2012,07,27,15,42,19.20
2012,07,27,15,43,19.20
2012,07,27,15,44,19.20
2012,07,27,15,45,19.20
2012,07,27,15,46,19.20
2012,07,27,15,47,19.30
2012,07,27,15,48,19.30
2012,07,27,15,49,19.30
2012,07,27,15,50,19.40
2012,07,27,15,51,19.40
2012,07,27,15,52,19.50
2012,07,27,15,53,19.50
2012,07,27,15,54,19.50
2012,07,27,15,55,19.50
2012,07,27,15,56,19.60
2012,07,27,15,57,19.60
2012,07,27,15,58,19.60
2012,07,27,15,59,19.60
2012,07,27,16,00,19.60
2012,07,27,16,01,19.60
2012,07,27,16,02,19.60
2012,07,27,16,03,19.50
2012,07,27,16,04,19.50
2012,07,27,16,05,19.50
2012,07,27,16,06,19.50
2012,07,27,16,07,19.50
2012,07,27,16,08,19.60
2012,07,27,16,09,19.60
2012,07,27,16,10,19.70
2012,07,27,16,11,19.80
2012,07,27,16,12,19.90
2012,07,27,16,13,19.90
2012,07,27,16,14,19.90
2012,07,27,16,15,19.90
2012,07,27,16,16,19.90
2012,07,27,16,17,20.00
2012,07,27,16,18,20.00
2012,07,27,16,19,20.10
2012,07,27,16,20,20.10
2012,07,27,16,21,20.10
2012,07,27,16,22,20.20
2012,07,27,16,23,20.30
2012,07,27,16,24,20.20
2012,07,27,16,25,20.10
2012,07,27,16,26,20.00
2012,07,27,16,27,19.80
2012,07,27,16,28,19.70
2012,07,27,16,29,19.60
2012,07,27,16,30,19.40
2012,07,27,16,31,19.30
2012,07,27,16,32,19.30
2012,07,27,16,33,19.30
2012,07,27,16,34,19.30
2012,07,27,16,35,19.40
2012,07,27,16,36,19.40
2012,07,27,16,37,19.30
2012,07,27,16,38,19.20
2012,07,27,16,39,19.10
2012,07,27,16,40,19.00
2012,07,27,16,41,18.90
2012,07,27,16,42,18.80
2012,07,27,16,43,18.80
2012,07,27,16,44,18.70
2012,07,27,16,45,18.70
2012,07,27,16,46,18.60
2012,07,27,16,47,18.50
2012,07,27,16,48,18.50
2012,07,27,16,49,18.50
2012,07,27,16,50,18.50
2012,07,27,16,51,18.40
2012,07,27,16,52,18.40
2012,07,27,16,53,18.40
2012,07,27,16,54,18.40
2012,07,27,16,55,18.40
2012,07,27,16,56,18.40
2012,07,27,16,57,18.40
2012,07,27,16,58,18.40
2012,07,27,16,59,18.40
2012,07,27,17,00,18.40
2012,07,27,17,01,18.40
2012,07,27,17,02,18.40
2012,07,27,17,03,18.40
2012,07,27,17,04,18.30
2012,07,27,17,05,18.30
2012,07,27,17,06,18.30
2012,07,27,17,07,18.30
2012,07,27,17,08,18.30
2012,07,27,17,09,18.30
2012,07,27,17,10,18.30
2012,07,27,17,11,18.30
2012,07,27,17,12,18.30
2012,07,27,17,13,18.30
2012,07,27,17,14,18.30
2012,07,27,17,15,18.20
2012,07,27,17,16,18.20
2012,07,27,17,17,18.20
2012,07,27,17,18,18.20
2012,07,27,17,19,18.20